Regional Weather Roundup
Issued by NWS

Home | Current Version | Previous Version | Text Only | Print | Product List | Glossary Off
Versions: 1 2 3 4 5 6 7 8 9 10 11 12 13 14 15 16 17 18 19 20 21 22 23 24 25 26 27

000
ASUS45 KCYS 120910
RWRWY

WYOMING REGIONAL WEATHER ROUNDUP
NATIONAL WEATHER SERVICE CHEYENNE WY
200 AM MST TUE DEC 12 2017

NOTE:  "FAIR" INDICATES FEW OR NO CLOUDS BELOW 12,000 FEET
WITH NO SIGNIFICANT WEATHER AND/OR OBSTRUCTIONS TO VISIBILITY.

WYZ001-121000-
YELLOWSTONE NATIONAL PARK

CITY           SKY/WX    TMP DP  RH WIND       PRES   REMARKS
LK YELLOWSTONE   N/A      9   6  88 CALM      30.58F
W YELLOWSTONE  NOT AVBL

$$
WYZ002>013-054>058-071-098>099-121000-
NORTHERN WYOMING

CITY           SKY/WX    TMP DP  RH WIND       PRES   REMARKS
JACKSON        FAIR      11   8  88 NE6       30.59F WCI   1
CODY           FAIR      25  18  74 CALM      30.38S
GREYBULL       FAIR      14   9  80 CALM      30.42S
WORLAND        FAIR      18  15  88 S7        30.40F WCI   9
SHERIDAN       FAIR      22  16  78 CALM      30.31F
BUFFALO        FAIR      39   3  22 NW3       30.33F
GILLETTE       FAIR      34  17  50 W7        30.31F WCI  28
HULETT         FAIR      32  18  55 SW13      30.31F WCI  22
NEWCASTLE      FAIR      23  14  68 CALM      30.35S

$$
WYZ014>020-022>026-101>103-121000-
CENTRAL WYOMING

CITY           SKY/WX    TMP DP  RH WIND       PRES   REMARKS
BIG PINEY      FAIR      14   5  67 CALM      30.53S
PINEDALE       FAIR      16  12  86 NW5       30.52F WCI   9
DUBOIS         FAIR      34   0  23 NW10      30.47S WCI  26
LANDER         FAIR      28  17  63 W5        30.42F WCI  23
RIVERTON       FAIR      22  15  75 SW6       30.43F WCI  14
CASPER         FAIR      26  16  65 W9        30.40F WCI  17
DOUGLAS        FAIR      24  18  77 NW9       30.38F WCI  14

$$
WYZ021-027>030-104>119-121000-
SOUTHERN WYOMING

CITY           SKY/WX    TMP DP  RH WIND       PRES   REMARKS
EVANSTON       FAIR      34   9  35 CALM      30.55R
FORT BRIDGER   FAIR      33  13  43 W7        30.55S WCI  26
ROCK SPRINGS   FAIR      24  10  55 W10       30.51S WCI  14
DIXON          FAIR      16  10  77 CALM      30.56S
RAWLINS        FAIR      15  10  80 CALM      30.49F
SARATOGA       FAIR      23  12  63 CALM      30.51R
LARAMIE        FAIR      18   9  68 SW3       30.44S
CHEYENNE       FAIR      32  17  54 W9        30.39F WCI  24
TORRINGTON     FAIR      22  14  71 NW8       30.37F WCI  12
PINE BLUFFS    FAIR      18  10  73 S6        30.40F WCI   9

$$




USA.gov is the U.S. government's official web portal to all federal, state and local government web resources and services.